Home   Weather   Zarqa   Past weeks

Flag for Jordan Past Weather in Zarqa, Jordan — Yesterday and Last 2 Weeks

Now
46 °F

Passing clouds.


Feels Like: 42 °F
Forecast: 43 / 62 °F
Wind: 8 mph from Southwest

Location: Amman Airport

Current Time: Dec 11, 2016 at 6:27:30 am

Latest Report: Dec 11, 2016 at 6:00 am


Visibility: 3 mi

Pressure: 30.15 "Hg (27.98 "Hg at 615m altitude)

Humidity: 76%

Dew Point: 39 °F

Location of ZarqaLocation

Past Weather in Zarqa — Graph

°F

Zarqa Temperature Yesterday

Maximum temperature yesterday: 55 °F (at 12:00 pm)
Minimum temperature yesterday: 39 °F (at 2:00 am)
Average temperature yesterday: 47 °F

High & Low Weather Summary for the Past Weeks

 TemperatureHumidityPressure
High64 °F (Nov 30, 2:00 pm)100% (Dec 2, 6:00 am)30.33 "Hg (Dec 2, 6:00 am)
Low34 °F (Nov 26, 6:00 am)8% (Nov 26, 12:00 pm)29.77 "Hg (Dec 1, 2:00 pm)
Average51 °F59%30.14 "Hg
* Reported Nov 26 5:00 am — Dec 11 5:00 am, Zarqa, Weather by CustomWeather, © 2016

Note: Actual official high and low records may vary slightly from our data, if they occured in-between our weather recording intervals... More about our weather records

Advertising

Zarqa Weather History for the Previous 24 Hours

Scroll right to see more
 ConditionsComfort  
Time TempWeatherWind HumidityBarometerVisibility
5:00 am
Sun, Dec 11
46 °FHaze.7 mph71%30.15 "Hg3 mi
3:00 am46 °FHaze.8 mph76%30.21 "Hg3 mi
2:00 am46 °FHaze.8 mph76%30.21 "Hg3 mi
1:00 am46 °FHaze.6 mph76%30.21 "Hg3 mi
12:00 am46 °FHaze.6 mph76%30.21 "Hg3 mi
11:00 pm
Sat, Dec 10
46 °FHaze.6 mph76%30.21 "Hg3 mi
10:00 pm46 °FPassing clouds.12 mph87%30.18 "Hg3 mi
9:00 pm48 °FPassing clouds.12 mph82%30.18 "Hg3 mi
8:00 pm48 °FPassing clouds.12 mph76%30.18 "Hg3 mi
7:00 pm48 °FPassing clouds.12 mph76%30.15 "Hg3 mi
6:00 pm48 °FPassing clouds.12 mph82%30.15 "Hg3 mi
5:00 pm50 °FPassing clouds.12 mph67%30.15 "Hg3 mi
4:00 pm52 °FScattered clouds.12 mph58%30.15 "Hg3 mi
3:00 pm55 °FPassing clouds.9 mph51%30.15 "Hg4 mi
2:00 pm55 °FPassing clouds.9 mph41%30.15 "Hg4 mi
1:00 pm55 °FClear.6 mph26%30.15 "Hg4 mi
12:00 pm55 °FClear.7 mph24%30.18 "Hg4 mi
11:00 am54 °FClear.6 mph38%30.21 "Hg2 mi
10:00 am52 °FClear.No wind44%30.21 "Hg2 mi
9:00 am50 °FClear.No wind47%30.21 "Hg2 mi
8:00 am43 °FClear.No wind57%30.21 "Hg2 mi
7:00 am41 °FHaze.No wind57%30.21 "Hg3 mi
6:00 am41 °FHaze.No wind61%30.21 "Hg3 mi
Weather by CustomWeather, © 2016

See weather overviewHow to use our weather pages